This is the latest recevied weather packets stored in our database for station/object JS2WAD-13. If no packets are shown the sender has not sent any weather packets the latest 10 day(s).
| Time | Temp. | Humidity | Pressure | Rain* | Wind** | Luminosity | Snow |
|---|---|---|---|---|---|---|---|
| 1777944084 | 16.67° C | 47% | 911.5 hPa | 0 mm | - | 97 W/m² | - |
| 1777943784 | 16.11° C | 48% | 911.5 hPa | 0 mm | - | 53 W/m² | - |
| 1777943484 | 16.11° C | 48% | 911.5 hPa | 0 mm | - | 54 W/m² | - |
| 1777943184 | 16.11° C | 49% | 911.5 hPa | 0 mm | - | 49 W/m² | - |
| 1777942884 | 16.11° C | 50% | 911.5 hPa | 0 mm | - | 46 W/m² | - |
| 1777942584 | 16.11° C | 48% | 911.5 hPa | 0 mm | - | 46 W/m² | - |
| 1777942284 | 15.56° C | 52% | 911.6 hPa | 0 mm | - | 42 W/m² | - |
| 1777941984 | 15.56° C | 51% | 911.5 hPa | 0 mm | - | 42 W/m² | - |
| 1777941685 | 15.56° C | 49% | 911.4 hPa | 0 mm | - | 49 W/m² | - |
| 1777941384 | 15.56° C | 46% | 911.4 hPa | 0 mm | - | 42 W/m² | - |
| 1777941084 | 15.56° C | 50% | 911.4 hPa | 0 mm | - | 40 W/m² | - |
| 1777940784 | 15.56° C | 54% | 911.3 hPa | 0 mm | - | 39 W/m² | - |
| 1777940484 | 15° C | 61% | 911.3 hPa | 0 mm | - | 37 W/m² | - |
| 1777940184 | 15° C | 52% | 911.3 hPa | 0 mm | - | 42 W/m² | - |
| 1777939884 | 15° C | 50% | 911.4 hPa | 0 mm | - | 40 W/m² | - |
| 1777939584 | 15° C | 54% | 911.4 hPa | 0 mm | - | 40 W/m² | - |
| 1777939284 | 15° C | 53% | 911.4 hPa | 0 mm | - | 40 W/m² | - |
| 1777938984 | 14.44° C | 67% | 911.3 hPa | 0 mm | - | 42 W/m² | - |
| 1777938684 | 14.44° C | 62% | 911.3 hPa | 0 mm | - | 44 W/m² | - |
| 1777938384 | 14.44° C | 55% | 911.3 hPa | 0 mm | - | 42 W/m² | - |
| 1777938084 | 14.44° C | 56% | 911.3 hPa | 0 mm | - | 40 W/m² | - |
| 1777937784 | 13.89° C | 54% | 911.3 hPa | 0 mm | - | 44 W/m² | - |
| 1777937485 | 13.89° C | 57% | 911.4 hPa | 0 mm | - | 49 W/m² | - |
| 1777937184 | 13.89° C | 57% | 911.3 hPa | 0 mm | - | 42 W/m² | - |
| 1777936885 | 13.89° C | 56% | 911.3 hPa | 0 mm | - | 32 W/m² | - |
* Rain latest hour (hover to see other rain measurements)
** Current wind speed in m/s (hover to see current wind gust speed)